Simultaneous Nadir Overpasses (SNOs) Predictions

Prediction of SNOs between GOES-14 and AQUA Satellite Orbit:

Table of predicted SNOs for the next 14.0 days since TLE Epoch: 10/25/2025
Index Date Time (GOES-14) GOES-14 Lat,Lon AQUA Lat,Lon Distance(km) Time Diff (sec)
1 10/26/2025 22:11:38 0.11,-108.43 0.11,-108.34 9.52 12
2 10/29/2025 10:08:09 -0.09,-108.49 -0.26,-107.80 79.08 80
3 10/29/2025 22:29:53 -0.02,-108.42 -0.90,-112.39 451.99 80
4 10/31/2025 22:06:16 0.05,-108.42 0.27,-107.26 130.50 80
5 11/01/2025 10:27:54 0.06,-108.49 0.79,-111.83 380.60 80
6 11/03/2025 10:04:16 -0.01,-108.48 -0.38,-106.71 201.91 80
7 11/03/2025 22:26:01 -0.10,-108.41 -0.75,-111.30 329.21 80
8 11/05/2025 22:02:22 -0.03,-108.40 0.42,-106.16 253.67 80
9 11/06/2025 10:24:00 0.15,-108.47 0.61,-110.74 257.13 80
